Regional Weather Roundup
Issued by NWS

Home | Current Version | Previous Version | Text Only | Print | Product List | Glossary Off
Versions: 1 2 3 4 5 6 7 8 9 10 11 12 13 14 15 16 17 18 19 20 21 22 23 24 25 26 27 28 29 30 31 32 33 34 35 36 37 38 39 40 41 42 43 44 45 46 47 48 49 50

000
ASUS45 KTFX 262219
RWRMT
MONTANA HOURLY WEATHER ROUNDUP
NATIONAL WEATHER SERVICE GREAT FALLS MT
319 PM MST FRI DEC 26 2014

NOTE: "FAIR" INDICATES FEW OR NO CLOUDS BELOW 12000 FEET WITH NO
SIGNIFICANT WEATHER AND/OR OBSTRUCTIONS TO VISIBILITY.

* THESE STATIONS ARE NOT UNDER NWS QUALITY CONTROL. THEY DO NOT
   REPORT WEATHER SUCH AS PRECIPITATION OR FOG.

MTZ001>007-043-262300-
WEST OF THE DIVIDE
CITY           SKY/WX    TMP DP  RH WIND       PRES   REMARKS
KALISPELL      CLOUDY    28  19  69 CALM      30.17R
MISSOULA       PTCLDY    27  21  78 W3        30.17R
BUTTE          PTCLDY    19  12  74 S3        30.03R
MULLAN PASS    LGT SNOW  19  14  81 VRB3      30.04R
* ESSEX        N/A       25  20  81 N/A        N/A
* HAMILTON APT PTSUNNY   30  21  69 N3        30.14R
* LIBBY APT    SUNNY     30  21  69 CALM      30.21S
* LINCOLN      N/A       25  16  69 SW3        N/A
* LOOKOUT PASS N/A       22  19  88 VRB4       N/A
* POLSON       N/A       29  25  85 SE2        N/A
* RONAN APT    SUNNY     27  25  92 N/A        N/A
* SEELEY LAKE  N/A       30  20  66 W6         N/A   WCI  24
* THOMP F APT  SUNNY     32  25  75 SW6        N/A   WCI  26
$$

MTZ008-052>055-262300-
SOUTHWEST MONTANA
CITY           SKY/WX    TMP DP  RH WIND       PRES   REMARKS
BOZEMAN        PTSUNNY   16  14  92 E3        30.09R
DILLON         CLOUDY    23  12  63 CALM      30.03R
* W YELLOWSTON PTSUNNY   15   5  64 NW1        N/A
* THREE FORKS  PTCLDY    23  23 100 N/A        N/A
* TWIN BRIDGES PTCLDY    21   9  60 N/A        N/A
* BOULDER HILL N/A       18   8  65 NE4        N/A
* MONIDA PASS  N/A       17   9  71 NW15       N/A   WCI   2
* RAYNOLDS PAS N/A       15  14  96 N/A        N/A
* WHITEHALL    N/A       28  14  56 S4         N/A
* WISE RIVER   N/A       22  13  68 N1         N/A
$$

MTZ009>010-012-014-046-048-049-054-262300-
EAST SLOPES AND CENTRAL MONTANA
CITY           SKY/WX    TMP DP  RH WIND       PRES   REMARKS
CUT BANK       SUNNY     18  12  77 S3        30.05S
GREAT FALLS    SUNNY     16  12  84 SW7       30.10S WCI   6
HELENA         SUNNY     25  19  78 CALM      30.10S
MALMSTROM AFB  SUNNY     16  14  92 S8        30.13S WCI   5
* CONRAD       SUNNY     21  16  81 CALM       N/A
* DEARBORN     N/A       22  18  85 N/A        N/A
* EAST GLACIER N/A       23  14  68 W17G23     N/A   WCI   9
* MONARCH      N/A       16   6  64 SE3        N/A
* PENDROY      N/A       19  13  77 SW7        N/A   WCI  10
* ROGERS PASS  N/A       20  11  68 E3         N/A
* SWEET GRASS  N/A       22  14  71 SW9        N/A   WCI  12
* WHITE SULPH  N/A       19  12  74 SW4        N/A
$$

MTZ011-013-016-021-035-040-045-047-050-051-262300-
NORTH CENTRAL MONTANA
CITY           SKY/WX    TMP DP  RH WIND       PRES   REMARKS
HAVRE          SUNNY     25  16  69 W12       30.13S WCI  14
LEWISTOWN      CLOUDY    19  18  96 NW7       30.07R WCI  10
* N BAR RANCH  PTSUNNY   19  14  81 NW20G26   30.03R WCI   3
* CHINOOK      SUNNY     27  16  63 W12       30.13R WCI  16
* CHESTER      N/A       24  15  68 SW6G11     N/A   WCI  17
* DENTON       N/A       19  15  84 NW9G14     N/A   WCI   8
* GEYSER       N/A       17  12  81 W13        N/A   WCI   3
* LOMA         N/A       23  18  81 SW8        N/A   WCI  14
$$

MTZ017>020-022>027-061-062-262300-
NORTHEAST MONTANA
CITY           SKY/WX    TMP DP  RH WIND       PRES   REMARKS
GLASGOW        CLOUDY    27  19  72 NW7       30.08R WCI  19
GLENDIVE       CLOUDY    27  18  69 S10       30.10R WCI  18
JORDAN         CLOUDY    28  19  69 NW15      30.07R WCI  16
SIDNEY         CLOUDY    21  16  81 E3        30.15S
WOLF POINT     CLOUDY    19  14  81 E6        30.12R WCI  11
* BEAVER HILL  N/A       25  15  66 SW2G9      N/A
* CIRCLE       N/A       30  23  75 SW7G12     N/A   WCI  23
* LINDSAY DVD  N/A       27  18  69 S11        N/A   WCI  17
* NAVAJO       N/A       16  12  84 SW2        N/A
* PLENTYWOOD A SUNNY     16  12  84 S3        30.11S
* POPLAR APT   PTCLDY    18  14  84 NE8       30.12R WCI   8
* SACO         N/A       27  21  78 NW6        N/A   WCI  20
$$

MTZ028>042-056>058-262300-
SOUTHCENTRAL AND SOUTHEAST MONTANA
CITY           SKY/WX    TMP DP  RH WIND       PRES   REMARKS
BAKER          CLOUDY    23  14  68 SW7       30.09R WCI  15
BILLINGS       CLOUDY    23  16  74 SW9       30.06R WCI  13
LIVINGSTON     CLOUDY    21  12  68 W9        30.04R WCI  11
MILES CITY     CLOUDY    27  19  72 S7        30.08S WCI  19
* BIG TIMBER A PTCLDY    25  14  63 SW13      30.03R WCI  13
* FORSYTH APT  PTCLDY    27  19  72 W8        30.10R WCI  19
* LAUREL APT   PTSUNNY   21  12  68 N/A        N/A
* ROUNDUP APT  PTCLDY    25  16  69 N/A        N/A
* ALZADA       N/A       21  14  74 SW3        N/A
* HYSHAM       N/A       22  13  68 W2         N/A
* LAME DEER    N/A       22  17  81 W4         N/A
* ROSCOE HILL  N/A       25   3  38 NW2        N/A
$$

REGIONAL REPORTS...DAKOTAS
CITY           SKY/WX    TMP DP  RH WIND       PRES   REMARKS
WILLISTON      CLOUDY    19  12  74 S5        30.15R WCI  12
DICKINSON      PTCLDY    25  14  63 N5        30.08S WCI  19
BEACH          CLOUDY    25  16  69 W7        30.10R WCI  17
CROSBY         CLOUDY    10  10 100 CALM      30.16R
TIOGA          CLOUDY    16  16 100 W5        30.15R WCI   8
WATFORD CITY   PTSUNNY   18  14  84 SE3       30.13R
BISMARCK       PTSUNNY   18   9  68 N8        30.18R WCI   8
GRAND FORKS    PTCLDY    12   3  67 NW14      30.22R WCI  -4
FARGO          CLOUDY    25  18  75 N15       30.18R WCI  13
BUFFALO SD     PTCLDY    19  12  74 NW8       30.03R WCI   9
RAPID CITY     CLOUDY    18  12  77 NE7       30.09R WCI   9
$$

REGIONAL REPORTS...WYOMING/IDAHO/WASHINGTON
CITY           SKY/WX    TMP DP  RH WIND       PRES   REMARKS
GILLETTE       PTSUNNY   18  12  77 CALM      30.01S
SHERIDAN       SUNNY     18   9  68 CALM      30.03R
CODY           CLOUDY    21  12  68 SW3       30.00R
YELLOWSTONE LA PTSUNNY   14   3  61 VRB3      29.92R
SALMON         CLOUDY    25  19  78 CALM      30.11S
MULLAN PASS    LGT SNOW  19  14  81 VRB3      30.04S
SAND POINT     CLOUDY    32  23  69 CALM      30.24S
SPOKANE        FOG       28  27  96 E6        30.23R VSB M1/4 WCI  21
$$

REGIONAL REPORTS...ALBERTA
CITY           SKY/WX    TMP DP  RH WIND       PRES   REMARKS
CALGARY        SUNNY     27  10  49 SW8       29.99F WCI  19
LETHBRIDGE     N/A       25  16  69 S6        30.06F WCI  18
MEDICINE HAT   SUNNY     25  19  78 SW12G17   30.10S WCI  14
EDMONTON       PTCLDY    16   9  74 VRB2      30.00S
WATERTON GATE  N/A       27  12  53 SW17G26    N/A   WCI  14
CARDSTON       N/A       23  16  74 S2         N/A
MILK RIVER     N/A       23  16  74 SW9        N/A   WCI  13
$$

REGIONAL REPORTS...SASKATCHEWAN
CITY           SKY/WX    TMP DP  RH WIND       PRES   REMARKS
SWIFT CURRENT  LGT SNOW  16  14  92 W12       30.05R WCI   3
REGINA         CLOUDY     5   1  83 SE3       30.11F
VAL MARIE      N/A       23  19  85 NW12       N/A   WCI  11
ASSINIBOIA     N/A       16  12  84 SW3        N/A

$$



USA.gov is the U.S. government's official web portal to all federal, state and local government web resources and services.